FW4702 Weather Reports


time (UTC)temp
C
wind
direction
speed
KPH
gust
KPH
rain 1hr
cm
rain 24hr
cm
rain mn
cm
humidity
%
barometer
mb
20260906095556 22 327 0.0 4.8 0.00 0.00 0.00 89 1013.2
20260906095053 23 0 0.0 4.8 0.00 0.00 0.00 88 1013.1
20260906094605 22 322 1.6 4.8 0.00 0.00 0.00 89 1013.3
20260906094053 22 319 0.0 3.2 0.00 0.00 0.00 90 1013.3
20260906093603 22 0 0.0 1.6 0.00 0.00 0.00 90 1013.3
20260906093109 22 0 0.0 1.6 0.00 0.00 0.00 90 1013.2
20260906092553 22 202 0.0 1.6 0.00 0.00 0.00 89 1013.1
20260906092056 22 0 0.0 3.2 0.00 0.00 0.00 89 1013.2
20260906091618 22 202 0.0 3.2 0.00 0.00 0.00 89 1013.3
20260906091056 22 202 1.6 3.2 0.00 0.00 0.00 88 1013.2
20260906090555 23 161 0.0 1.6 0.00 0.00 0.00 87 1013.5
20260906090129 23 0 0.0 1.6 0.00 0.00 0.00 87 1013.7
20260906085555 23 0 0.0 3.2 0.00 0.00 0.00 87 1013.6
20260906085053 23 0 0.0 3.2 0.00 0.00 0.00 86 1013.6
20260906084626 23 0 0.0 3.2 0.00 0.00 0.00 86 1013.6
20260906084052 23 0 0.0 3.2 0.00 0.00 0.00 86 1013.2
20260906083556 23 0 0.0 3.2 0.00 0.00 0.00 86 1013.1
20260906083106 22 0 0.0 1.6 0.00 0.00 0.00 86 1013.1
20260906082558 23 0 0.0 1.6 0.00 0.00 0.00 87 1013.0
20260906082055 23 0 0.0 1.6 0.00 0.00 0.00 86 1013.0
20260906081610 23 0 0.0 9.7 0.00 0.00 0.00 85 1013.4
20260906081055 23 0 1.6 9.7 0.00 0.00 0.00 83 1013.4
20260906080553 23 0 0.0 6.4 0.00 0.00 0.00 83 1013.7
20260906080100 23 345 1.6 6.4 0.00 0.00 0.00 83 1013.9
20260906075556 24 0 0.0 12.9 0.00 0.00 0.00 82 1014.1
20260906075056 25 118 3.2 12.9 0.00 0.00 0.00 79 1014.2
20260906074623 25 0 3.2 24.1 0.00 0.00 0.00 78 1014.2
20260906074057 25 76 3.2 24.1 0.00 0.00 0.00 78 1014.3
20260906073559 25 29 4.8 25.7 0.00 0.00 0.00 78 1014.4
20260906073115 25 32 4.8 25.7 0.00 0.00 0.00 79 1014.4
20260906072556 25 59 6.4 20.9 0.00 0.00 0.00 80 1014.4
20260906072056 25 5 3.2 19.3 0.00 0.00 0.00 81 1014.5
20260906071607 25 54 6.4 19.3 0.00 0.00 0.00 82 1014.5
20260906071053 25 43 4.8 17.7 0.00 0.00 0.00 82 1014.6
20260906070556 25 93 4.8 14.5 0.00 0.00 0.00 83 1014.4
20260906070104 25 5 1.6 3.2 0.00 0.00 0.00 85 1014.2
20260906065553 25 71 0.0 8.0 0.00 0.00 0.00 86 1013.8
20260906065056 25 85 0.0 8.0 0.00 0.00 0.00 87 1013.8
20260906064606 25 39 3.2 8.0 0.00 0.00 0.00 87 1013.8
20260906064059 25 58 0.0 4.8 0.00 0.00 0.00 89 1013.8
20260906063555 25 0 0.0 4.8 0.00 0.00 0.00 89 1013.7
20260906063109 24 0 0.0 3.2 0.00 0.00 0.00 91 1013.6
20260906062618 24 22 0.0 3.2 0.00 0.00 0.00 92 1013.3
20260906062057 24 0 0.0 1.6 0.00 0.00 0.00 92 1013.3
20260906061603 24 0 0.0 0.0 0.00 0.00 0.00 92 1013.5
20260906061057 24 0 0.0 1.6 0.00 0.00 0.00 91 1013.5
20260906060558 24 0 0.0 1.6 0.00 0.00 0.00 91 1013.5
20260906060136 25 0 0.0 1.6 0.00 0.00 0.00 90 1013.5
20260906055558 24 0 0.0 1.6 0.00 0.00 0.00 91 1013.6
20260906055058 24 0 0.0 1.6 0.00 0.00 0.00 91 1013.6
20260906054617 24 0 0.0 3.2 0.00 0.00 0.00 90 1013.6
20260906054100 24 0 0.0 8.0 0.00 0.00 0.00 90 1013.6
20260906053557 25 240 0.0 8.0 0.00 0.00 0.00 89 1013.7
20260906053105 24 59 3.2 6.4 0.00 0.00 0.00 91 1014.0
20260906052557 24 66 0.0 3.2 0.00 0.00 0.00 91 1013.6
20260906052059 23 0 0.0 3.2 0.00 0.00 0.00 91 1013.3
20260906051604 23 0 0.0 4.8 0.00 0.00 0.00 92 1013.1
20260906051059 23 108 0.0 4.8 0.00 0.00 0.00 91 1013.0
20260906050601 23 0 0.0 0.0 0.00 0.00 0.00 91 1013.1
20260906050104 23 0 0.0 0.0 0.00 0.00 0.00 91 1013.0
20260906045557 23 0 0.0 0.0 0.00 0.00 0.00 91 1013.0
20260906045058 23 0 0.0 0.0 0.00 0.00 0.00 90 1013.2
20260906044605 23 0 0.0 0.0 0.00 0.00 0.00 91 1013.2
20260906044102 23 0 0.0 0.0 0.00 0.00 0.00 90 1013.3
20260906043558 23 0 0.0 0.0 0.00 0.00 0.00 90 1013.5
20260906043104 23 0 0.0 0.0 0.00 0.00 0.00 90 1013.5
20260906042558 23 0 0.0 0.0 0.00 0.00 0.00 91 1013.6
20260906042059 23 0 0.0 0.0 0.00 0.00 0.00 91 1013.7
20260906041604 23 0 0.0 0.0 0.00 0.00 0.00 90 1013.5
20260906041059 23 0 0.0 0.0 0.00 0.00 0.00 90 1013.4
20260906040558 23 0 0.0 0.0 0.00 0.00 0.00 89 1013.4
20260906040101 23 0 0.0 0.0 0.00 0.00 0.00 89 1013.4
20260906035558 23 0 0.0 0.0 0.00 0.00 0.00 90 1013.5
20260906035058 23 0 0.0 0.0 0.00 0.00 0.00 90 1013.5
20260906034607 23 0 0.0 0.0 0.00 0.00 0.00 90 1013.5
20260906034057 23 0 0.0 0.0 0.00 0.00 0.00 89 1013.5
20260906033558 23 0 0.0 0.0 0.00 0.00 0.00 89 1013.5
20260906033102 23 0 0.0 0.0 0.00 0.00 0.00 89 1013.5
20260906032558 23 0 0.0 0.0 0.00 0.00 0.00 88 1013.5
20260906032058 23 0 0.0 0.0 0.00 0.00 0.00 87 1013.5
20260906031558 23 0 0.0 0.0 0.00 0.00 0.00 88 1013.5
20260906031058 23 0 0.0 0.0 0.00 0.00 0.00 88 1013.5
20260906030553 23 0 0.0 0.0 0.00 0.00 0.00 88 1013.6
20260906030059 23 0 0.0 0.0 0.00 0.00 0.00 88 1013.5
20260906025557 23 0 0.0 0.0 0.00 0.00 0.00 87 1013.5
20260906025056 24 0 0.0 0.0 0.00 0.00 0.00 86 1013.4
20260906024621 24 0 0.0 1.6 0.00 0.00 0.00 85 1013.3
20260906024055 24 0 0.0 1.6 0.00 0.00 0.00 86 1013.3
20260906023553 24 0 0.0 1.6 0.00 0.00 0.00 87 1013.1
20260906023104 24 0 0.0 0.0 0.00 0.00 0.00 85 1013.1
20260906022556 24 0 0.0 1.6 0.00 0.00 0.00 86 1012.9
20260906022055 24 0 0.0 1.6 0.00 0.00 0.00 86 1012.9
20260906021606 25 0 0.0 1.6 0.00 0.00 0.00 85 1012.9
20260906021100 25 0 0.0 0.0 0.00 0.00 0.00 83 1012.9
20260906020553 24 0 0.0 0.0 0.00 0.00 0.00 84 1012.9
20260906020114 24 0 0.0 0.0 0.00 0.00 0.00 85 1012.8
20260906015558 24 0 0.0 0.0 0.00 0.00 0.00 86 1012.8
20260906015056 25 0 0.0 0.0 0.00 0.00 0.00 85 1012.6
20260906014609 24 0 0.0 0.0 0.00 0.00 0.00 84 1012.5
20260906014056 25 0 0.0 0.0 0.00 0.00 0.00 84 1012.5
20260906013555 25 0 0.0 0.0 0.00 0.00 0.00 83 1012.4
20260906013105 25 0 0.0 0.0 0.00 0.00 0.00 83 1012.3
20260906012556 25 0 0.0 0.0 0.00 0.00 0.00 83 1012.3
20260906012055 25 0 0.0 0.0 0.00 0.00 0.00 82 1012.3
20260906011607 25 0 0.0 0.0 0.00 0.00 0.00 81 1012.3
20260906011056 25 0 0.0 0.0 0.00 0.00 0.00 81 1012.2
20260906010556 25 0 0.0 1.6 0.00 0.00 0.00 79 1012.2
20260906010145 25 0 0.0 1.6 0.00 0.00 0.00 80 1012.1
20260906005553 26 0 0.0 1.6 0.00 0.00 0.00 79 1012.0
20260906005055 26 0 0.0 3.2 0.00 0.00 0.00 76 1012.0
20260906004615 26 0 0.0 3.2 0.00 0.00 0.00 77 1011.9
20260906004056 26 0 1.6 3.2 0.00 0.00 0.00 77 1011.9
20260906003556 26 0 0.0 3.2 0.00 0.00 0.00 75 1012.0
20260906003103 26 0 0.0 3.2 0.00 0.00 0.00 73 1012.0
20260906002555 26 313 0.0 4.8 0.00 0.00 0.00 74 1011.9
20260906002056 26 320 1.6 4.8 0.00 0.00 0.00 74 1012.1
20260906001607 27 222 1.6 3.2 0.00 0.00 0.00 72 1012.2
20260906001055 27 208 0.0 9.7 0.00 0.00 0.00 72 1012.3
20260906000555 27 184 1.6 11.3 0.00 0.00 0.00 72 1012.6
20260905235556 29 67 1.6 17.7 0.00 0.00 0.00 70 1012.8
20260905235056 29 65 8.0 20.9 0.00 0.00 0.00 65 1012.7
20260905234610 30 22 1.6 25.7 0.00 0.00 0.00 68 1012.5
20260905234056 30 34 8.0 25.7 0.00 0.00 0.00 67 1012.4
20260905233556 30 52 4.8 17.7 0.00 0.00 0.00 69 1012.3
20260905233120 31 38 1.6 6.4 0.00 0.00 0.00 73 1012.4
20260905232556 30 0 0.0 1.6 0.00 0.00 0.00 80 1011.9
20260905232056 30 0 0.0 1.6 0.00 0.00 0.00 78 1011.7
20260905231620 31 0 0.0 1.6 0.00 0.00 0.00 76 1011.6
20260905231056 31 0 0.0 1.6 0.00 0.00 0.00 71 1011.6
20260905230556 31 0 0.0 1.6 0.00 0.00 0.00 73 1011.6
20260905230114 32 0 0.0 3.2 0.00 0.00 0.00 68 1011.4
20260905225555 32 0 0.0 4.8 0.00 0.00 0.00 62 1011.5
20260905225056 33 0 1.6 4.8 0.00 0.00 0.00 59 1011.5
20260905224611 32 320 0.0 3.2 0.00 0.00 0.00 61 1011.5
20260905224057 33 5 0.0 3.2 0.00 0.00 0.00 60 1011.4
20260905223557 33 5 0.0 3.2 0.00 0.00 0.00 58 1011.5
20260905223123 33 0 0.0 3.2 0.00 0.00 0.00 60 1011.5
20260905222559 34 0 0.0 4.8 0.00 0.00 0.00 54 1011.6
20260905222055 34 0 0.0 4.8 0.00 0.00 0.00 57 1011.6
20260905221603 35 0 0.0 4.8 0.00 0.00 0.00 52 1011.6
20260905221056 35 321 0.0 3.2 0.00 0.00 0.00 53 1011.6
20260905220558 34 0 0.0 3.2 0.00 0.00 0.00 53 1011.7
20260905220104 34 0 0.0 6.4 0.00 0.00 0.00 54 1011.6
20260905215556 35 0 0.0 6.4 0.00 0.00 0.00 53 1011.7
20260905215059 34 352 0.0 3.2 0.00 0.00 0.00 55 1011.7
20260905214613 35 0 0.0 3.2 0.00 0.00 0.00 52 1011.7
20260905214057 34 331 0.0 8.0 0.00 0.00 0.00 54 1011.8
20260905213557 35 346 1.6 8.0 0.00 0.00 0.00 54 1011.8
20260905213103 35 300 1.6 6.4 0.00 0.00 0.00 53 1011.9
20260905212556 35 0 1.6 6.4 0.00 0.00 0.00 53 1011.9
20260905212056 35 0 1.6 6.4 0.00 0.00 0.00 52 1011.8
20260905211607 35 317 1.6 6.4 0.00 0.00 0.00 53 1011.8
20260905211056 35 0 1.6 6.4 0.00 0.00 0.00 53 1011.8
20260905210556 35 0 0.0 6.4 0.00 0.00 0.00 54 1011.7
20260905210116 35 333 1.6 6.4 0.00 0.00 0.00 52 1011.6
20260905205558 35 322 0.0 4.8 0.00 0.00 0.00 52 1011.8
20260905205056 35 302 3.2 4.8 0.00 0.00 0.00 52 1012.0
20260905204604 35 302 0.0 9.7 0.00 0.00 0.00 50 1012.0
20260905204056 35 90 1.6 9.7 0.00 0.00 0.00 51 1012.1
20260905203557 35 40 0.0 3.2 0.00 0.00 0.00 49 1012.2
20260905203058 35 0 0.0 6.4 0.00 0.00 0.00 49 1012.2
20260905202555 35 0 1.6 6.4 0.00 0.00 0.00 49 1012.2
20260905202100 35 37 0.0 4.8 0.00 0.00 0.00 47 1012.3
20260905201605 35 0 1.6 4.8 0.00 0.00 0.00 49 1012.3
20260905201055 35 0 1.6 8.0 0.00 0.00 0.00 50 1012.4
20260905200555 35 306 0.0 8.0 0.00 0.00 0.00 52 1012.6
20260905200130 36 5 1.6 8.0 0.00 0.00 0.00 50 1012.8
20260905195556 35 26 0.0 6.4 0.00 0.00 0.00 52 1012.8
20260905195056 35 0 0.0 9.7 0.00 0.00 0.00 51 1012.8
20260905194602 35 0 0.0 11.3 0.00 0.00 0.00 50 1012.8
20260905194056 36 252 3.2 11.3 0.00 0.00 0.00 48 1012.9
20260905193556 35 212 0.0 6.4 0.00 0.00 0.00 51 1012.8
20260905193103 35 0 1.6 6.4 0.00 0.00 0.00 50 1012.9
20260905192556 35 313 1.6 6.4 0.00 0.00 0.00 51 1013.1
20260905192056 35 0 0.0 9.7 0.00 0.00 0.00 54 1013.2
20260905191605 35 318 3.2 9.7 0.00 0.00 0.00 52 1013.1
20260905191055 35 299 3.2 9.7 0.00 0.00 0.00 52 1013.1
20260905190556 35 5 0.0 6.4 0.00 0.00 0.00 54 1013.3
20260905190101 35 28 1.6 8.0 0.00 0.00 0.00 53 1013.4
20260905185552 35 94 3.2 11.3 0.00 0.00 0.00 54 1013.4
20260905185053 35 0 1.6 11.3 0.00 0.00 0.00 53 1013.7
20260905184609 34 91 0.0 8.0 0.00 0.00 0.00 56 1013.7
20260905184056 34 0 0.0 9.7 0.00 0.00 0.00 55 1013.7
20260905183553 35 0 4.8 9.7 0.00 0.00 0.00 55 1013.7
20260905183103 34 0 0.0 9.7 0.00 0.00 0.00 57 1013.9
20260905182553 35 0 1.6 9.7 0.00 0.00 0.00 54 1013.8
20260905182056 35 352 1.6 14.5 0.00 0.00 0.00 54 1013.8
20260905181604 35 0 3.2 14.5 0.00 0.00 0.00 55 1013.9
20260905181055 34 41 6.4 14.5 0.00 0.00 0.00 55 1014.0
20260905180553 34 0 0.0 6.4 0.00 0.00 0.00 57 1014.2
20260905175557 34 40 3.2 8.0 0.00 0.00 0.00 57 1014.2
20260905175053 34 100 0.0 8.0 0.00 0.00 0.00 58 1014.3
20260905174609 34 64 1.6 9.7 0.00 0.00 0.00 57 1014.2
20260905174052 34 0 1.6 9.7 0.00 0.00 0.00 56 1014.2
20260905173556 34 79 3.2 11.3 0.00 0.00 0.00 57 1014.3
20260905173105 34 48 3.2 11.3 0.00 0.00 0.00 57 1014.4
20260905172552 34 331 1.6 8.0 0.00 0.00 0.00 58 1014.5
20260905172056 33 85 0.0 9.7 0.00 0.00 0.00 59 1014.5
20260905171604 33 0 1.6 9.7 0.00 0.00 0.00 61 1014.6
20260905171055 33 72 1.6 9.7 0.00 0.00 0.00 61 1014.7
20260905170556 33 0 0.0 6.4 0.00 0.00 0.00 64 1014.7
20260905170101 33 0 1.6 8.0 0.00 0.00 0.00 60 1014.7
20260905165553 33 34 3.2 8.0 0.00 0.00 0.00 60 1014.7
20260905165056 33 352 1.6 6.4 0.00 0.00 0.00 61 1014.7
20260905164607 32 14 1.6 6.4 0.00 0.00 0.00 65 1014.8
20260905164053 32 238 0.0 6.4 0.00 0.00 0.00 68 1015.0
20260905163556 33 289 1.6 8.0 0.00 0.00 0.00 63 1015.1
20260905163106 32 352 1.6 8.0 0.00 0.00 0.00 64 1015.1
20260905162558 32 297 0.0 8.0 0.00 0.00 0.00 66 1015.3
20260905162056 32 342 1.6 8.0 0.00 0.00 0.00 64 1015.3
20260905161602 32 0 3.2 8.0 0.00 0.00 0.00 65 1015.3
20260905161056 32 0 1.6 6.4 0.00 0.00 0.00 66 1015.4
20260905160557 32 321 0.0 4.8 0.00 0.00 0.00 66 1015.4
20260905160101 32 32 0.0 4.8 0.00 0.00 0.00 67 1015.4
20260905155552 32 0 0.0 3.2 0.00 0.00 0.00 67 1015.5
20260905155052 31 0 0.0 4.8 0.00 0.00 0.00 70 1015.5
20260905154606 32 0 0.0 4.8 0.00 0.00 0.00 66 1015.6
20260905154056 31 50 0.0 4.8 0.00 0.00 0.00 69 1015.6
20260905153559 31 0 0.0 4.8 0.00 0.00 0.00 69 1015.6
20260905153104 31 5 1.6 3.2 0.00 0.00 0.00 68 1015.6
20260905152559 31 0 0.0 3.2 0.00 0.00 0.00 70 1015.6
20260905152056 31 0 0.0 3.2 0.00 0.00 0.00 72 1015.5
20260905151622 30 0 0.0 3.2 0.00 0.00 0.00 73 1015.7
20260905151056 30 0 0.0 3.2 0.00 0.00 0.00 80 1015.7
20260905150555 29 0 0.0 3.2 0.00 0.00 0.00 81 1015.6
20260905150104 30 0 0.0 1.6 0.00 0.00 0.00 79 1015.6
20260905145559 30 0 0.0 1.6 0.00 0.00 0.00 80 1015.5
20260905145055 29 165 0.0 1.6 0.00 0.00 0.00 81 1015.6
20260905144600 29 0 0.0 3.2 0.00 0.00 0.00 81 1015.5
20260905144058 28 0 0.0 3.2 0.00 0.00 0.00 82 1015.6
20260905143557 29 0 0.0 3.2 0.00 0.00 0.00 80 1015.6
20260905143105 28 58 0.0 3.2 0.00 0.00 0.00 81 1015.7
20260905142558 28 0 0.0 3.2 0.00 0.00 0.00 83 1015.8
20260905142055 28 0 0.0 3.2 0.00 0.00 0.00 84 1015.9
20260905141603 27 0 0.0 1.6 0.00 0.00 0.00 86 1015.9
20260905141057 27 0 0.0 1.6 0.00 0.00 0.00 85 1015.9
20260905140556 27 0 0.0 3.2 0.00 0.00 0.00 85 1016.0
20260905140105 27 0 0.0 3.2 0.00 0.00 0.00 85 1015.9
20260905135557 27 0 0.0 3.2 0.00 0.00 0.00 87 1016.0
20260905135057 27 0 0.0 0.0 0.00 0.00 0.00 88 1016.0
20260905134601 26 0 0.0 0.0 0.00 0.00 0.00 90 1016.1
20260905134059 26 0 0.0 0.0 0.00 0.00 0.00 90 1016.0
20260905133556 26 0 0.0 0.0 0.00 0.00 0.00 90 1016.0
20260905133105 26 0 0.0 0.0 0.00 0.00 0.00 90 1016.1
20260905132556 26 0 0.0 0.0 0.00 0.00 0.00 91 1016.1
20260905132056 25 0 0.0 0.0 0.00 0.00 0.00 91 1016.1
20260905131609 25 0 0.0 0.0 0.00 0.00 0.00 93 1016.2
20260905131055 25 0 0.0 0.0 0.00 0.00 0.00 93 1016.2
20260905130557 25 0 0.0 0.0 0.00 0.00 0.00 95 1016.2
20260905125556 24 0 0.0 0.0 0.00 0.00 0.00 96 1016.1
20260905125059 23 0 0.0 0.0 0.00 0.00 0.00 97 1016.2
20260905124601 23 0 0.0 0.0 0.00 0.00 0.00 97 1016.2
20260905124055 23 0 0.0 0.0 0.00 0.00 0.00 97 1016.2
20260905123556 23 0 0.0 0.0 0.00 0.00 0.00 97 1016.2
20260905123111 23 0 0.0 0.0 0.00 0.00 0.00 97 1016.2
20260905122601 22 0 0.0 0.0 0.00 0.00 0.00 97 1016.1
20260905122055 22 0 0.0 0.0 0.00 0.00 0.00 97 1016.1
20260905121608 22 0 0.0 0.0 0.00 0.00 0.00 97 1016.1
20260905121053 22 0 0.0 0.0 0.00 0.00 0.00 97 1016.0
20260905120559 22 0 0.0 0.0 0.00 0.00 0.00 97 1015.9
20260905120105 22 0 0.0 0.0 0.00 0.00 0.00 97 1015.9
20260905115556 22 0 0.0 0.0 0.00 0.00 0.00 97 1015.8
20260905115055 22 0 0.0 0.0 0.00 0.00 0.00 97 1015.8
20260905114603 22 0 0.0 0.0 0.00 0.00 0.00 97 1015.7
20260905114052 22 0 0.0 0.0 0.00 0.00 0.00 97 1015.5
20260905113556 22 0 0.0 0.0 0.00 0.00 0.00 97 1015.4
20260905113112 22 0 0.0 0.0 0.00 0.00 0.00 97 1015.3
20260905112559 22 0 0.0 0.0 0.00 0.00 0.00 97 1015.3
20260905112055 22 0 0.0 0.0 0.00 0.00 0.00 97 1015.3
20260905111606 22 0 0.0 0.0 0.00 0.00 0.00 97 1015.1
20260905111055 22 0 0.0 0.0 0.00 0.00 0.00 97 1015.1
20260905110601 22 0 0.0 0.0 0.00 0.00 0.00 97 1015.0
20260905110109 22 0 0.0 0.0 0.00 0.00 0.00 96 1014.9
20260905105556 22 0 0.0 0.0 0.00 0.00 0.00 96 1014.9
20260905105057 22 0 0.0 0.0 0.00 0.00 0.00 97 1015.0
20260905104610 22 0 0.0 0.0 0.00 0.00 0.00 96 1014.8
20260905104052 22 0 0.0 0.0 0.00 0.00 0.00 96 1014.9
20260905103556 22 0 0.0 0.0 0.00 0.00 0.00 96 1014.8
20260905103107 22 0 0.0 0.0 0.00 0.00 0.00 96 1014.7
20260905102555 22 0 0.0 0.0 0.00 0.00 0.00 96 1014.7
20260905102055 22 0 0.0 0.0 0.00 0.00 0.00 97 1014.7
20260905101607 22 0 0.0 0.0 0.00 0.00 0.00 96 1014.6
20260905101055 22 0 0.0 0.0 0.00 0.00 0.00 96 1014.6
20260905100556 22 0 0.0 0.0 0.00 0.00 0.00 96 1014.5
20260905100110 22 0 0.0 0.0 0.00 0.00 0.00 96 1014.6